Regional Weather Roundup
Issued by NWS

Home | Current Version | Previous Version | Graphics & Text | Print | Product List | Glossary On
Versions: 1 2 3 4 5 6 7 8 9 10 11 12 13 14 15 16 17 18 19 20 21 22 23 24 25 26 27
000
ASUS45 KSLC 271310
RWRUT

UTAH REGIONAL WEATHER ROUNDUP
NATIONAL WEATHER SERVICE SALT LAKE CITY UT
700 AM MDT TUE SEP 27 2016

UTZ001>011-023>025-271400-

NORTHERN UTAH

CITY           SKY/WX    TMP DP  RH WIND       PRES   REMARKS
BRIGHAM CITY     N/A     49  46  91 CALM      30.24S
HILL AFB       CLEAR     52  41  67 E16       30.24S
LOGAN          CLEAR     45  43  93 W3        30.25R
OGDEN          CLEAR     51  43  74 S6        30.23S
PROVO AIRPORT  CLEAR     47  41  80 E3        30.26S
SALT LAKE CITY CLEAR     53  45  74 SE8       30.23R
VERNAL         CLOUDY    43  40  89 W3        30.31S
WENDOVER       PTCLDY    52  43  71 CALM      30.23S
HEBER CITY     CLEAR     36  36 100 E3        30.31S
WEST JORDAN    CLEAR     51  45  79 S6        30.25S

$$

UTZ012>022-026-027-271400-

SOUTHERN/CENTRAL UTAH

CITY           SKY/WX    TMP DP  RH WIND       PRES   REMARKS
BLANDING       CLEAR     46  33  61 N7        30.38S
BRYCE CANYON   PTCLDY    34  30  85 W8        30.38F WCI  27
CEDAR CITY     PTCLDY    42  35  76 E3        30.26S
DELTA          CLEAR     45  41  87 CALM      30.25R
MILFORD        CLEAR     43  35  73 SW3       30.25S
MOAB/CYNLANDS  CLEAR     47  37  68 SW5       30.23S
PRICE          CLEAR     47  38  71 N7        30.29S
ST GEORGE      SUNNY     61  36  39 CALM      30.15R

$$

REGIONAL REPORTS     COLORADO/ARIZONA

CITY           SKY/WX    TMP DP  RH WIND       PRES   REMARKS
CRAIG, CO      NOT AVBL
GRAND JUNCTION CLEAR     46  38  73 E6        30.28R
RIFLE          CLOUDY    41  37  86 CALM      30.34R
MONTROSE       CLOUDY    42  36  79 SE6       30.35R
CORTEZ         CLEAR     37  34  89 CALM      30.32S
PAGE, AZ       CLEAR     56  36  47 SW5       30.20S
GRAND CANYON   CLEAR     41  34  76 NE5       30.31R
KINGMAN        PTCLDY    59  32  36 E12       30.10R
FLAGSTAFF      CLOUDY    48  38  68 CALM      30.30S

$$

REGIONAL REPORTS    NEVADA/IDAHO/WYOMING

CITY           SKY/WX    TMP DP  RH WIND       PRES   REMARKS
LAS VEGAS, NV  PTCLDY    70  32  24 SW3       30.02R
ELY            PTCLDY    37  30  75 S7        30.31S WCI  32
ELKO           PTCLDY    45  39  79 E5        30.25R
POCATELLO, ID  CLOUDY    39  37  92 CALM      30.24S
BURLEY         CLEAR     41  40  96 NE3       30.19S
EVANSTON, WY   CLOUDY    44  33  65 CALM      30.36S
ROCK SPRINGS   CLOUDY    42  39  89 SE3       30.35S

$$




USA.gov is the U.S. government's official web portal to all federal, state and local government web resources and services.